TIANWANG 1B (TW-1B)
1 40927U 15051C   18183.08776731  .00006644  00000-0  12844-3 0  9996
2 40927  97.1898 225.1790 0008158 227.0965 184.6075 15.48069527155521
TIANWANG 1A (TW-1A)
1 40928U 15051D   18182.83128722 +.00002317 +00000-0 +62431-4 0  9991
2 40928 097.1837 216.5302 0009906 269.4185 145.6581 15.38797436155035
LAPAN A2
1 40931U 15052B   18182.10762042 +.00000683 +00000-0 +60031-5 0  9994
2 40931 006.0006 050.8113 0013073 209.0578 150.8946 14.76579028149066
LQSAT
1 40958U 15057A   18182.90582919 +.00000013 +00000-0 +97833-5 0  9996
2 40958 097.9396 255.7224 0016964 291.6781 068.2607 14.73036393147020
CHUBUSAT 2
1 41338U 16012B   18182.48783946 +.00000262 +00000-0 +13638-4 0  9993
2 41338 031.0022 222.7905 0013835 215.0777 144.8947 14.99992346129987
CHUBUSAT 3
1 41339U 16012C   18182.69941587  .00000345  00000-0  20119-4 0  9998
2 41339  31.0105 220.0187 0013677 225.4552 134.4971 15.00179705130009
OUFTI-1
1 41458U 16025C   18182.86857441 +.00001892 +00000-0 +10122-3 0  9998
2 41458 098.1340 246.5008 0170883 098.5200 263.5412 15.04729906119653
E-STAR-2
1 41459U 16025D   18182.87808486 +.00001273 +00000-0 +69808-4 0  9994
2 41459 098.1350 246.3470 0172234 099.2170 262.8541 15.04456398119637
AAUSAT 4
1 41460U 16025E   18182.70969394  .00003160  00000-0  16489-3 0  9997
2 41460  98.1304 246.6922 0163106  95.7006 266.2843 15.05928620119670
NUSAT 1
1 41557U 16033B   18182.90673834 +.00001173 +00000-0 +45490-4 0  9993
2 41557 097.4378 267.0950 0016114 109.5290 250.7691 15.28050754116409
BEESAT 4
1 41619U 16040W   18182.72873676 +.00001223 +00000-0 +56269-4 0  9998
2 41619 097.4140 245.6741 0011836 171.1739 188.9707 15.22171491100302
PRATHAM
1 41783U 16059A   18182.91104223 +.00000029 +00000-0 +14908-4 0  9993
2 41783 098.1164 244.2324 0034630 051.1056 309.3226 14.62929843094117
ALSAT 1N
1 41789U 16059G   18182.92433490 +.00000087 +00000-0 +25609-4 0  9995
2 41789 098.1183 245.4977 0029260 043.4909 316.8589 14.64163247094176
NAYIF 1
1 42017U 17008BX  18182.73373541  .00001267  00000-0  54463-4 0  9995
2 42017  97.4472 247.7045 0005658 344.1437  15.9622 15.24495480 76288
LILACSAT-1
1 42725U 98067ME  18182.88031873  .00016723  00000-0  14006-3 0  9991
2 42725  51.6359 283.1244 0004587 296.9871  63.0658 15.70107513 62827
MAX VALIER SAT
1 42778U 17036P   18182.71676152  .00000857  00000-0  41294-4 0  9994
2 42778  97.4022 242.1882 0013275  26.6293 333.5622 15.21346074 56713
